Powrót do katalogu

UGATUSAT

AktywnyNaukaSSO
NORAD 35869·PAYLOAD·🇷🇺 Russia

Wystrzelony Sep 17, 2009 z Baikonur Cosmodrome

Loading…

Następne Przeloty (najbliższe 24 godziny)

TLE

ŚwieżeSource: Space-Track

Epoka: Sep 14, 2026, 08:57 UTC

1 35869U 09049E   26257.37355823  .00000040  00000-0  37456-4 0  9994
2 35869  98.7507 218.6424 0005337  53.0065 307.1601 14.23229637882110

Śledź UGATUSAT w czasie rzeczywistym z AllMySat

Download on the App Store